Temp
22 24 26 26 22 24 24 26 31 30 30 31 31 30 28 29 29 25 27 27 24 21 20 20 20 19 19 18 19 19 19 18 18 18 18 18 18 18 17 17 17 17 17 17 16 17 16 16 16
22 23 26 23 23 23 25 28 29 30 31 29 29 30 29 30 28 26 26 27 25 22 20 20 20 19 19 18 18 18 18 18 18 18 18 18 18 18 17 17 16 16 16 16 16 16 16 17 17
22 23 23 23 23 23 25 29 30 30 30 30 29 29 30 29 29 27 27 27 25 23 21 20 20 19 19 18 18 18 18 18 18 18 18 18 18 18 17 16 16 16 16 16 16 16 17 17 17
23 24 23 23 24 25 26 28 29 29 30 31 30 30 30 30 30 27 26 27 26 24 22 20 20 19 19 19 19 18 17 18 18 18 18 18 18 17 17 17 17 16 16 16 16 16 16 17 17
23 22 22 23 24 25 27 29 30 29 29 30 30 28 28 28 27 27 26 27 26 23 22 21 20 20 19 19 19 18 18 17 18 18 18 18 18 17 17 17 17 16 16 16 16 16 16 16 16
21 22 21 22 24 26 27 29 29 29 28 29 30 28 27 28 27 27 26 27 26 23 21 21 20 20 20 19 19 18 18 17 18 18 18 17 17 17 17 17 17 17 16 16 16 16 17 17 17
21 21 22 23 24 26 28 29 28 27 27 28 30 29 26 26 27 27 27 27 26 23 21 20 20 20 20 20 19 18 18 18 18 17 17 18 18 18 17 17 17 17 16 17 17 17 17 17 17
21 21 22 23 24 25 27 29 28 28 27 30 30 28 26 26 27 26 27 26 26 25 22 21 20 19 19 19 19 19 18 18 18 18 18 18 18 18 17 17 17 17 17 17 17 17 17 18 18
23 20 20 22 24 25 27 27 28 29 27 28 29 28 26 27 27 27 26 25 25 25 24 22 21 20 19 19 18 18 18 18 18 18 18 18 18 18 18 17 17 17 17 17 17 17 18 18 18
20 19 21 24 25 25 27 27 27 27 26 25 27 28 27 27 26 26 25 25 25 25 25 24 22 21 20 19 19 18 18 18 18 18 18 19 18 18 17 17 17 17 17 17 17 17 18 18 17
20 19 23 24 25 24 24 24 27 25 25 25 26 27 26 26 26 26 26 26 25 25 25 24 23 22 21 20 20 18 18 18 18 18 18 19 19 19 18 18 18 18 18 17 17 18 17 17 18
20 22 22 23 24 23 22 23 23 24 24 25 25 25 26 26 25 25 26 27 26 25 25 25 24 23 22 21 21 20 19 19 19 19 19 19 19 19 19 19 19 18 17 17 17 18 17 17 17
20 21 23 23 23 22 22 21 21 22 23 24 25 25 25 26 25 27 27 27 27 26 25 25 24 24 22 21 21 20 20 20 20 20 20 20 19 19 19 19 19 19 18 18 17 18 17 17 17
22 21 21 22 22 21 21 21 20 21 22 22 23 23 23 24 24 26 27 27 27 27 26 25 24 24 23 22 21 21 21 21 21 20 20 20 20 20 20 19 19 18 18 17 17 17 17 17 16
20 18 19 20 20 20 21 19 20 21 22 22 22 22 23 23 25 24 26 27 27 27 27 25 24 24 23 22 22 21 22 22 22 21 20 20 20 20 20 19 19 18 17 17 17 16 16 16 15
18 18 16 21 20 21 20 18 21 22 21 21 22 22 22 23 24 25 26 26 27 27 27 26 25 24 23 22 22 23 22 23 22 21 20 20 20 20 19 19 18 17 16 16 16 16 15 15 15
18 16 18 20 21 22 20 19 21 22 23 21 21 21 23 23 23 25 26 26 27 27 27 27 26 24 23 23 22 22 23 23 22 21 21 20 20 19 19 18 17 16 16 16 15 15 15 14 14
17 17 18 19 21 20 19 18 20 21 21 20 20 20 21 22 22 25 26 26 27 27 27 27 26 25 24 23 23 22 23 22 22 21 20 20 19 18 17 17 16 16 15 15 14 14 14 13 13
18 19 18 19 21 19 18 19 20 20 20 20 21 21 21 22 22 25 25 25 26 26 27 27 26 25 25 24 23 23 23 22 21 21 20 20 19 17 16 16 16 16 15 15 14 13 13 12 13
18 17 17 18 20 18 17 17 18 19 20 20 20 20 21 21 21 22 24 25 25 25 25 25 26 25 24 24 24 23 22 20 21 20 19 18 17 16 15 16 15 15 14 14 13 13 12 11 11
16 16 16 16 17 17 16 16 18 21 20 20 21 21 21 21 21 21 21 23 24 24 24 24 25 25 24 23 23 22 20 18 17 17 16 15 15 15 15 15 15 14 14 13 13 12 12 11 10
15 17 17 17 15 14 16 13 16 19 20 21 19 19 19 20 20 21 21 21 23 24 24 24 24 25 25 24 22 21 18 15 15 15 14 14 13 14 14 14 13 13 13 13 12 11 12 11 10
16 16 15 15 14 13 14 12 15 19 19 20 20 20 21 19 19 19 19 21 23 23 23 24 24 24 24 23 22 19 17 15 14 13 13 13 12 12 13 13 13 13 12 12 11 10 11 10 10
15 15 15 14 14 11 13 14 15 19 20 20 20 20 20 20 20 19 20 22 22 23 23 22 23 24 23 22 21 18 16 14 12 11 11 11 11 11 12 12 12 12 12 11 10 10 9 9 9
15 13 10 11 12 10 18 15 16 19 20 20 20 20 21 21 20 19 19 17 20 22 22 22 22 22 23 21 20 17 16 15 12 10 9 9 9 10 10 11 11 11 11 10 10 9 9 8 8
13 13 10 12 12 14 16 15 16 20 20 21 21 21 20 21 19 17 17 16 18 20 21 22 21 21 21 20 18 16 16 13 11 10 9 9 9 10 10 10 10 10 9 9 8 8 7 7 7
13 11 14 11 13 10 13 17 18 20 20 20 19 19 18 20 17 17 16 17 18 19 21 21 21 20 20 19 17 16 15 12 11 10 9 9 9 9 10 10 9 9 9 8 8 7 7 7 6
14 15 11 10 9 11 14 15 17 19 19 19 18 18 18 17 18 16 15 15 17 19 21 21 20 20 19 18 17 14 13 12 10 10 9 9 9 9 9 9 8 8 8 7 7 7 6 6 6
12 12 12 12 12 12 12 14 19 17 18 17 17 19 18 17 16 16 15 16 16 18 20 20 19 19 18 17 13 12 12 11 10 9 9 9 9 9 9 8 8 7 7 7 7 6 6 5 5
14 13 12 10 11 12 11 13 18 18 18 17 17 17 16 17 16 16 15 15 15 17 19 19 19 18 16 13 11 11 10 9 9 9 8 9 9 8 8 8 7 7 6 6 6 5 5 5 4
Height
779 777 776 775 798 787 792 774 742 751 752 737 736 742 753 748 754 781 756 758 758 762 767 772 775 779 783 785 789 790 792 794 796 798 800 802 804 806 807 808 808 808 810 811 812 813 815 816 817
777 777 774 776 797 802 785 754 755 747 741 740 741 743 749 753 741 750 755 759 761 763 768 773 776 779 783 786 788 790 793 795 797 799 801 803 805 807 808 809 809 809 810 812 813 814 816 817 817
778 777 780 783 790 797 784 748 744 741 740 745 748 741 743 749 742 749 752 757 761 764 769 772 777 780 783 786 789 791 793 796 799 800 803 805 807 808 809 809 810 811 812 813 814 815 816 817 818
777 774 775 786 784 769 766 749 742 745 743 742 742 749 737 741 743 747 754 758 760 764 768 773 777 781 784 787 789 791 794 796 799 801 804 806 808 809 811 811 811 812 813 814 816 816 817 818 819
775 773 786 784 779 765 751 740 740 750 748 745 743 752 747 744 746 750 754 758 761 763 767 773 777 780 784 786 789 791 794 796 799 801 803 805 808 810 811 812 813 814 815 815 816 817 818 819 819
778 772 786 787 773 756 748 739 739 748 748 746 747 750 751 745 747 752 755 758 761 763 768 772 776 779 783 786 788 791 794 796 799 801 803 806 807 810 811 812 813 814 815 816 816 818 818 819 820
775 776 781 776 769 758 745 732 742 749 750 749 740 751 746 746 747 752 756 758 761 763 767 772 775 778 782 785 787 791 793 796 799 801 803 804 807 808 811 812 813 815 815 816 817 818 819 820 821
768 772 776 770 769 761 738 731 733 743 751 736 737 753 757 749 749 752 756 758 761 764 766 770 775 778 781 785 787 789 792 795 798 800 803 805 806 806 809 812 813 814 816 817 818 819 820 820 820
761 778 776 770 764 756 737 740 733 735 746 741 738 741 747 749 751 751 755 759 761 764 767 768 773 777 780 784 787 788 791 794 796 799 802 805 806 807 809 811 813 814 816 817 819 819 819 820 820
767 775 766 752 749 750 740 737 738 744 750 750 745 741 745 749 750 751 754 757 759 762 765 767 769 774 779 783 786 788 790 793 795 797 800 803 805 807 809 811 813 814 816 817 818 819 819 820 820
763 770 754 749 744 742 747 747 737 747 752 747 749 742 741 745 748 749 751 753 756 760 763 765 767 770 775 779 783 787 790 791 794 796 798 801 804 805 807 810 812 813 815 816 817 819 819 820 820
766 756 753 750 745 748 752 748 749 746 749 740 741 740 738 741 745 746 747 749 752 755 760 762 765 767 770 774 779 783 787 789 791 793 797 799 801 803 806 808 810 812 814 816 818 817 819 819 819
760 757 750 747 747 750 750 755 757 751 744 741 738 738 741 742 743 743 744 746 748 750 753 758 762 766 767 770 775 779 783 785 787 791 795 798 800 802 804 806 809 811 813 815 816 817 818 818 818
753 755 755 751 749 752 756 755 758 752 744 744 743 740 739 740 741 742 742 742 744 746 748 752 757 762 765 767 771 776 779 781 785 787 792 796 798 801 803 803 806 809 812 813 814 815 816 816 817
757 768 761 755 752 753 752 757 754 746 743 744 741 738 737 736 736 737 739 740 741 743 744 747 753 758 761 765 769 772 775 779 782 785 789 794 797 799 800 802 805 808 809 812 813 814 815 816 816
767 766 774 746 743 743 753 758 745 734 737 738 737 735 733 731 731 733 735 736 738 739 741 743 747 752 757 759 763 766 770 773 778 783 786 790 794 795 797 800 803 806 809 811 812 813 813 815 815
765 773 762 751 736 738 748 753 737 730 729 732 731 728 726 726 724 725 728 730 732 733 735 737 740 743 749 755 759 762 765 767 771 778 782 787 791 792 794 797 800 805 808 810 811 812 812 814 814
764 768 759 752 741 741 750 749 739 733 731 732 729 726 723 721 719 718 720 722 725 727 729 732 736 739 743 749 753 757 761 762 766 772 778 781 785 789 792 795 798 801 805 808 810 811 812 812 812
750 754 756 748 737 745 747 743 738 731 727 724 722 722 719 717 714 714 715 717 718 720 723 724 727 732 738 743 746 749 753 757 762 767 773 775 779 784 789 792 795 798 802 805 808 810 811 811 811
753 759 762 752 745 751 751 741 733 724 714 714 715 713 711 712 711 709 709 710 712 714 716 720 722 724 730 736 741 744 747 752 756 764 768 771 776 780 786 790 792 795 798 802 805 809 810 810 811
761 765 765 766 759 756 752 736 717 702 702 701 701 701 703 703 705 705 705 704 706 708 712 714 717 720 724 729 737 738 742 747 753 759 765 768 773 778 785 788 790 793 797 800 802 806 808 808 811
766 754 757 761 771 774 756 765 725 709 702 697 698 696 697 699 700 701 701 701 701 702 706 710 712 715 718 722 727 730 733 740 746 751 759 765 772 777 783 785 788 792 796 798 803 805 805 807 809
762 759 765 767 774 775 764 778 722 700 705 698 693 691 691 693 693 694 695 695 698 699 700 701 707 710 712 716 720 726 729 736 741 749 757 764 771 777 780 784 786 789 793 797 799 806 804 806 807
761 765 768 772 774 785 761 757 719 704 698 697 690 686 687 687 689 690 691 693 693 694 695 699 699 702 707 711 715 719 725 730 739 747 754 760 768 775 778 781 785 787 790 795 800 803 803 804 806
763 773 792 789 782 783 726 745 721 696 692 690 690 687 686 685 687 691 691 691 691 690 691 692 696 696 701 707 712 717 723 726 733 741 749 756 765 772 776 779 784 786 787 794 797 800 802 803 805
767 771 790 773 770 752 735 733 713 685 683 682 681 682 682 682 686 690 691 691 689 685 683 687 690 694 698 702 709 717 722 727 732 739 746 753 760 768 773 777 782 786 788 791 795 797 800 802 803
767 778 766 778 764 781 744 712 694 683 682 681 680 678 679 679 686 690 692 691 687 682 678 680 685 690 695 699 707 714 720 726 732 738 746 752 759 767 771 776 781 785 788 791 793 796 798 799 802
760 759 779 786 793 767 727 718 706 691 688 683 685 681 679 682 684 688 692 691 685 679 675 676 680 686 691 698 705 711 719 725 731 738 744 752 758 766 770 775 781 784 788 791 793 795 796 798 800
764 766 766 766 765 762 743 720 685 690 690 691 687 680 681 685 687 687 689 689 684 677 673 672 677 684 691 697 702 710 718 724 732 737 745 751 756 763 769 775 780 785 788 790 792 794 796 797 798
749 757 762 775 767 755 752 716 686 686 686 689 688 682 683 680 683 684 685 686 684 677 673 671 675 683 689 694 701 710 717 725 732 739 746 751 757 764 769 775 779 784 788 790 792 793 794 795 795
Wind_Speed
8 13 12 7 2 4 8 11 1 1 1 7 5 4 6 8 3 3 13 10 27 26 25 23 21 19 17 15 12 10 8 8 10 10 13 13 13 12 11 10 10 10 11 12 12 12 13 12 11
8 11 12 3 4 6 9 14 7 3 2 8 8 6 6 3 8 8 11 13 25 27 24 23 21 19 17 15 13 10 9 10 11 11 15 14 13 12 11 11 10 11 11 11 11 10 9 9 7
8 12 2 4 5 10 9 7 6 6 6 2 5 9 7 3 7 13 20 21 24 25 24 23 21 19 17 15 12 11 12 12 13 15 15 12 12 12 12 12 13 13 13 12 10 9 8 7 6
7 5 4 5 13 13 18 13 7 4 4 2 6 4 5 11 3 15 18 21 22 24 28 23 21 17 15 14 12 12 14 16 15 15 13 13 12 12 11 11 12 13 13 12 11 10 9 8 7
10 4 6 8 15 16 15 9 4 2 5 1 4 8 5 8 15 18 17 19 21 26 24 22 21 17 15 13 12 12 14 15 14 13 13 12 12 10 10 10 10 11 11 10 10 9 8 7 7
3 3 5 13 16 14 15 12 4 3 9 7 1 8 4 16 16 16 16 18 21 24 23 23 21 18 15 14 13 13 13 14 16 15 13 10 11 9 7 8 8 9 8 8 9 8 7 7 6
8 7 10 14 13 12 12 11 6 7 7 7 5 4 8 9 19 16 15 17 21 22 25 22 22 19 16 15 14 13 13 14 17 14 12 10 8 8 10 7 7 7 7 7 7 6 6 5 4
5 5 15 14 12 14 10 4 8 5 9 2 5 2 4 6 14 16 13 15 18 19 22 21 21 22 19 16 15 14 13 15 16 15 11 8 6 7 14 9 7 7 6 6 6 5 4 4 5
7 5 11 16 14 12 11 6 5 2 7 6 3 4 8 12 11 15 14 16 16 17 20 25 23 21 18 15 17 15 14 14 16 16 13 9 8 10 13 10 7 7 6 5 4 4 5 5 6
6 7 9 10 13 11 14 5 3 3 7 8 7 8 13 7 10 13 12 13 18 18 19 22 25 23 21 18 16 16 15 15 17 17 15 12 12 12 13 10 8 6 6 3 3 4 6 6 3
7 12 8 13 15 6 9 11 4 6 5 8 9 8 10 11 11 11 15 19 19 20 19 20 26 25 24 23 19 17 15 13 13 14 14 15 14 14 13 8 9 7 6 5 4 6 4 0 2
16 12 13 15 14 5 6 9 10 7 8 10 10 9 3 7 7 10 11 16 24 23 22 21 22 25 29 25 19 18 19 20 19 17 18 15 16 14 14 9 10 9 8 8 5 6 2 3 2
12 16 12 9 9 7 7 8 10 14 10 11 10 11 6 4 7 13 17 16 14 25 26 24 21 23 28 25 22 22 20 23 21 20 19 17 16 14 15 15 16 13 10 6 6 5 2 0 1
4 8 11 14 7 8 12 11 12 8 11 14 15 13 10 8 9 17 18 13 16 17 26 26 25 25 23 25 24 26 22 21 22 23 20 19 18 16 17 16 13 11 10 9 8 5 2 1 3
5 8 11 13 10 10 5 14 18 18 18 17 15 13 15 12 15 15 23 19 21 21 24 26 28 26 26 24 24 27 22 23 23 22 22 20 19 18 18 17 15 14 12 10 7 4 2 0 3
5 10 8 10 19 13 11 15 11 13 18 20 18 15 14 13 19 26 27 29 26 24 20 27 31 30 28 29 28 25 25 23 25 20 23 23 19 20 21 19 18 14 12 10 8 5 2 1 2
6 6 12 9 5 4 9 6 11 8 5 7 8 9 15 14 12 22 28 31 32 26 26 27 31 35 34 30 30 29 25 27 25 24 23 24 23 21 23 21 17 13 12 10 7 6 5 1 3
7 10 8 8 5 4 8 13 12 13 14 11 9 10 9 8 10 18 27 32 29 31 30 26 22 31 31 33 30 31 28 27 26 28 27 29 27 26 23 20 19 17 14 11 8 5 5 3 5
12 8 8 11 9 6 9 15 15 15 15 17 15 13 13 15 12 21 24 24 24 30 30 33 31 31 29 28 30 30 30 28 29 29 30 32 32 26 24 24 22 18 15 12 9 8 5 4 6
8 7 10 9 9 10 10 21 18 21 22 19 18 17 16 13 12 15 21 26 29 26 27 29 29 36 37 32 30 27 27 27 31 30 29 30 29 29 26 26 23 20 19 16 11 7 6 5 7
7 6 7 9 11 10 15 18 13 10 17 20 21 21 17 16 16 15 14 21 26 29 31 29 30 29 37 34 30 22 29 28 27 28 26 25 27 28 26 26 23 20 17 16 12 10 6 6 4
6 3 6 5 6 4 9 7 7 10 9 7 9 8 10 13 15 15 16 16 22 26 33 35 29 32 30 35 31 34 29 25 28 34 31 26 26 27 27 26 22 19 17 15 12 9 9 7 7
3 7 5 5 6 9 4 4 6 6 6 6 8 8 6 9 10 10 10 18 26 24 24 38 37 30 30 36 32 35 29 23 29 31 30 29 27 27 27 25 24 21 17 14 13 10 9 8 7
6 2 4 6 4 5 12 9 6 0 2 6 7 7 9 5 6 6 11 12 15 24 27 21 32 36 28 35 32 36 33 31 30 32 32 32 30 28 27 26 23 20 19 16 14 11 9 7 6
3 2 2 2 3 6 3 8 12 15 15 16 8 7 1 6 3 6 5 7 13 19 20 26 20 29 29 31 29 33 31 33 33 36 32 32 31 29 26 25 23 21 20 18 13 10 8 6 5
7 4 3 5 3 3 6 7 6 8 9 6 5 6 8 2 2 5 7 7 17 21 23 24 21 25 26 30 30 29 27 32 31 34 34 30 32 32 29 26 23 21 19 16 13 10 7 4 2
5 6 2 3 5 2 5 6 9 13 14 12 9 10 8 4 6 6 8 12 20 23 22 23 24 25 27 31 30 29 34 31 31 30 34 32 31 34 29 25 22 19 17 15 11 8 5 3 2
6 3 1 0 3 6 6 8 9 7 8 6 9 5 5 6 5 4 6 11 21 26 20 25 25 28 28 29 27 33 33 32 32 32 32 30 30 30 29 25 21 19 16 13 12 8 5 4 3
6 5 4 3 3 4 5 4 2 6 7 8 8 1 4 3 3 3 5 12 22 25 13 22 25 24 28 28 31 33 32 31 31 31 31 33 34 32 27 24 21 17 14 11 9 6 4 2 3
8 8 9 3 5 4 5 12 22 16 3 8 10 5 7 8 5 1 3 7 18 20 14 22 24 24 27 34 35 35 34 33 31 31 33 33 32 28 26 23 20 16 12 9 7 5 2 3 4
Wind_Direction
290 307 291 279 260 216 254 257 214 39 299 305 54 358 5 287 65 99 131 113 139 144 152 150 149 142 140 135 131 124 121 129 134 141 137 134 121 106 90 81 83 85 93 89 82 81 81 85 86
284 297 271 270 239 257 251 233 198 195 25 26 348 316 296 251 87 121 126 142 144 143 151 155 152 146 141 137 131 120 115 122 130 139 130 122 116 105 94 87 81 89 96 94 90 89 86 77 72
275 273 280 212 221 241 261 317 83 123 54 282 248 199 256 73 82 137 135 145 141 144 152 159 154 149 146 142 134 124 126 126 131 125 124 123 117 105 98 94 90 90 91 93 93 87 81 73 68
253 230 269 255 252 228 243 276 56 70 236 201 290 266 100 43 94 118 135 148 144 147 158 157 155 155 151 145 137 127 129 128 130 133 128 127 119 114 105 97 93 92 92 89 87 85 83 80 75
239 271 233 226 242 260 278 285 109 258 288 182 172 269 102 75 101 126 140 154 147 146 151 156 160 160 157 150 142 133 137 140 139 140 133 124 132 126 115 102 101 98 96 93 85 82 79 80 77
214 209 246 227 247 237 238 256 165 229 267 225 83 276 103 128 127 138 149 160 147 145 151 158 164 164 162 157 150 143 142 151 146 141 137 137 143 148 139 115 107 102 96 90 89 84 83 77 65
236 231 234 246 260 255 242 230 171 210 246 264 229 289 138 119 125 142 160 160 153 142 153 161 165 169 167 165 158 154 153 153 157 159 154 156 154 171 174 143 117 107 101 101 99 91 80 76 62
236 255 253 250 260 259 275 276 174 208 256 246 358 221 83 105 136 147 157 150 154 157 156 162 169 172 171 171 167 163 163 164 165 171 174 159 148 162 175 161 139 129 122 115 106 88 72 73 53
219 239 231 246 252 266 279 303 124 139 283 284 189 261 116 122 147 139 149 152 165 169 169 166 173 175 179 180 175 169 169 172 175 181 184 169 141 146 155 163 158 150 144 132 115 98 86 63 51
220 219 238 246 255 255 263 281 206 206 226 270 260 135 123 147 170 158 169 176 172 179 182 173 174 174 177 179 186 178 178 179 183 189 191 176 174 169 175 172 172 164 154 144 118 103 82 35 24
213 246 230 245 272 6 333 322 202 296 236 219 237 218 158 175 191 197 191 185 187 184 190 192 176 177 181 177 182 178 184 181 181 192 194 177 194 174 173 186 178 168 170 129 121 108 104 200 26
244 234 237 265 282 341 303 309 305 263 251 280 302 317 112 161 201 201 221 212 186 186 192 191 193 179 185 188 193 195 189 191 189 188 192 186 187 195 193 177 169 184 153 177 157 126 126 75 27
229 248 254 263 284 304 291 286 285 289 300 279 285 287 285 236 277 276 210 231 234 188 187 191 194 192 181 185 193 195 202 198 188 183 190 192 189 186 179 197 169 170 178 173 135 158 132 221 2
226 270 268 269 264 255 267 260 260 263 261 274 275 276 275 246 231 264 270 215 237 217 184 187 197 196 185 188 193 198 203 203 189 185 188 192 190 187 186 171 174 194 183 163 174 183 193 197 322
327 306 280 259 250 243 269 256 251 251 250 256 249 245 251 256 252 235 253 256 213 242 197 190 194 200 195 194 194 196 196 203 189 187 186 193 192 186 191 179 189 184 172 168 182 172 150 74 323
243 246 260 248 221 225 205 256 271 274 229 234 246 252 250 240 232 242 245 247 253 215 227 198 193 196 198 197 202 203 200 199 195 195 188 191 192 191 191 197 191 186 168 160 173 167 135 37 318
233 268 223 258 190 157 199 274 263 276 288 283 245 257 235 240 240 238 236 236 236 236 219 212 197 191 196 201 200 205 207 200 199 196 196 190 192 196 203 193 181 170 163 178 174 161 162 154 333
207 210 251 270 154 180 239 252 265 282 285 266 252 259 267 244 248 237 232 238 235 236 222 221 207 194 195 200 200 200 206 201 202 194 194 189 194 198 200 184 174 172 172 169 171 159 127 81 354
286 303 304 311 328 320 272 271 264 263 251 251 244 248 245 247 249 248 247 251 244 236 235 215 209 203 203 209 200 196 202 191 190 192 196 194 194 196 190 179 176 175 174 163 166 151 140 68 22
274 294 286 295 300 337 307 282 276 259 256 245 244 242 242 247 242 245 244 230 238 246 246 241 212 199 202 209 207 201 192 181 185 185 182 185 188 188 189 182 175 171 170 167 162 174 141 84 42
260 259 285 300 313 289 275 278 248 252 236 238 238 239 239 238 242 245 250 239 228 226 238 246 229 214 200 200 203 190 173 165 157 167 174 184 190 187 185 178 173 170 170 162 161 164 156 135 79
245 6 336 305 325 266 21 292 267 279 266 242 222 220 220 232 242 247 251 261 240 226 222 234 240 224 216 196 194 188 171 162 176 173 170 168 185 183 180 177 173 169 166 158 157 157 145 141 133
238 60 355 311 304 324 245 234 269 189 239 249 258 211 231 220 215 229 229 231 251 264 233 221 232 230 217 198 192 182 173 172 176 174 173 180 181 182 177 178 172 167 161 156 163 162 141 140 132
83 342 222 255 256 252 217 200 276 271 79 19 336 227 208 97 40 355 330 310 245 249 253 255 223 217 212 195 189 181 172 167 168 174 173 178 176 177 174 171 169 168 168 166 163 161 150 142 142
209 102 297 235 213 236 202 198 250 295 290 293 261 319 29 113 42 314 335 317 296 243 247 244 237 209 200 191 186 181 176 182 183 174 170 165 165 173 170 168 169 168 161 166 161 158 150 145 151
194 182 199 273 235 297 325 244 241 235 246 192 223 253 250 77 61 18 325 305 287 272 223 228 219 203 191 181 177 178 180 179 176 172 168 164 164 167 162 167 169 165 163 159 160 155 153 166 165
136 200 216 307 268 282 233 283 299 267 268 273 257 228 203 164 82 15 340 313 300 283 223 208 209 195 191 178 174 179 174 167 166 164 164 164 161 163 162 165 166 162 158 157 154 152 161 164 205
193 145 86 8 264 264 242 254 249 335 344 348 346 54 111 101 72 29 333 307 308 297 249 204 200 193 184 173 176 155 163 164 165 160 160 158 157 158 159 162 160 156 156 159 157 166 181 186 198
189 229 236 8 239 259 303 242 81 359 354 342 330 36 61 39 320 359 312 314 307 301 245 195 186 186 171 171 143 149 153 152 152 152 153 152 154 157 157 157 154 154 157 155 153 164 189 213 250
209 197 206 201 235 230 285 277 255 265 300 342 303 225 222 215 199 246 323 312 302 299 279 175 178 172 153 135 139 147 147 142 144 143 147 149 148 154 153 151 149 149 154 153 161 163 200 254 276